カタログに戻る

GEESAT 1-04

運用中通信LEO
NORAD 52788·PAYLOAD·🇨🇳 China

打ち上げ Jun 2, 2022 から Xichang Satellite Launch Center

Loading…

次のパス (今後24時間)

TLE

最新Source: Space-Track

元期: Sep 14, 2026, 21:09 UTC

1 52788U 22058D   26257.88189010  .00001287  00000-0  19011-3 0  9997
2 52788  50.0040 148.8251 0009355 130.3142 229.8614 14.81596609233229

AllMySatでGEESAT 1-04をリアルタイム追跡

Download on the App Store